Regional Weather Roundup
Issued by NWS Charleston, WV

Home | Current Version | Previous Version | Text Only | Print | Product List | Glossary Off
Versions: 1 2 3 4 5 6 7 8 9 10 11 12 13 14 15 16 17 18 19 20 21 22 23 24 25 26 27 28 29 30 31 32 33 34 35 36 37 38 39 40 41 42 43 44 45 46 47 48 49 50

000
ASUS41 KRLX 181310
RWRRLX
West Virginia Regional Weather Roundup
National Weather Service Charleston WV
900 AM EDT WED OCT 18 2017

Note: "fair" indicates few or no clouds below 12,000 feet with no
significant weather and/or obstructions to visibility.

WVZ003-181400-
Northern Panhandle of West Virginia

CITY           SKY/WX    TMP DP  RH WIND       PRES   REMARKS
WHEELING       SUNNY     44  41  89 CALM      30.36R
$$

WVZ009-181400-
Northwest West Virginia

CITY           SKY/WX    TMP DP  RH WIND       PRES   REMARKS
PARKERSBURG    FOG       39  39 100 CALM      30.38R VSB 1/8
$$

WVZ006-181400-
Western West Virginia

CITY           SKY/WX    TMP DP  RH WIND       PRES   REMARKS
HUNTINGTON     SUNNY     42  40  92 CALM      30.35R
$$

WVZ015-181400-
West Central West Virginia

CITY           SKY/WX    TMP DP  RH WIND       PRES   REMARKS
CHARLESTON     FOG       39  38  96 CALM      30.35R VSB 1/2
$$

WVZ022-031-181400-
North Central West Virginia

CITY           SKY/WX    TMP DP  RH WIND       PRES   REMARKS
CLARKSBURG     SUNNY     43  38  82 CALM      30.37R
MORGANTOWN     SUNNY     43  39  86 CALM      30.38R
$$

WVZ025-035-042-045-181400-
Southern West Virginia

CITY           SKY/WX    TMP DP  RH WIND       PRES   REMARKS
BECKLEY        SUNNY     46  37  71 CALM      30.36R
LOGAN            N/A     46  43  87 CALM      30.34R
BLUEFIELD      SUNNY     41  36  82 CALM      30.37R
LEWISBURG      SUNNY     37  35  94 NE5       30.40R
$$

WVZ047-181400-
Northern Mountains of West Virginia

CITY           SKY/WX    TMP DP  RH WIND       PRES   REMARKS
ELKINS         FOG       33  31  92 CALM      30.39R VSB<1/4
$$

WVZ052-181400-
Eastern Panhandle of West Virginia

CITY           SKY/WX    TMP DP  RH WIND       PRES   REMARKS
MARTINSBURG    SUNNY     43  40  89 CALM      30.39R
PETERSBURG     SUNNY     38  36  94 CALM      30.42R
$$



USA.gov is the U.S. government's official web portal to all federal, state and local government web resources and services.